28 Sep
2006
28 Sep
'06
10:45 p.m.
ISS 1 25544U 98067A 06271.92812500 .00013739 00000-0 89180-4 0 7624 2 25544 051.6381 013.0552 0012769 037.3578 132.3767 15.76249096449522
6658
Age (days ago)
6658
Last active (days ago)
0 comments
1 participants
participants (1)
-
Dave Larsen PhD